Tracking 30995 objects as of 5-Jul-2025
HD Live streaming from Space Station
objects crossing your sky now

FENGYUN 1C DEB

Track FENGYUN 1C DEB now!
10-day predictions


NORAD ID: 30434
Int'l Code: 1999-025AEV
Perigee: 845.9 km
Apogee: 1,022.3 km
Inclination: 99.0 °
Period: 103.6 minutes
Semi major axis: 7305 km
RCS: 0.018 m2 (small)
Launch date: May 10, 1999
Source: People's Republic of China (PRC)
Launch site: Taiyaun Space Center, China (TSC)

Note: This is SATELLITE DEBRIS
Your satellite tracking list
FENGYUN 1C DEB
Track 1 satellite(s)




NASA's NSSDC Master Catalog

Two Line Element Set (TLE):
1 30434U 99025AEV 25186.46449115  .00000284  00000-0  24861-3 0  9993
2 30434  98.9835 178.4359 0120673 307.9754 204.6906 13.90476978935018
Source of the keplerian elements: AFSPC